アトラス彗星

C/2024 M1 ( ATLAS )

English version
Home page
Updated on October 1, 2025

---------------------------------------------------------------------

・ プロフィール

発見日 2024年6月29日
発見光度 17.8等
発見者 Asteroid Terrestrial-Impact Last Alert System (ATLAS) search program

・ 写真集

・ 軌道要素

Epoch 2025 May 5.0 TT = JDT 2460800.5
T 2024 Nov. 20.00317 TT                                 Pike
q   1.7032510            (2000.0)            P               Q
n   0.00604897     Peri.  345.58675     +0.29859090     -0.20453782
a  29.8319645      Node    76.21491     +0.94278287     -0.08860156
e   0.9429052      Incl.   73.70977     +0.14833725     +0.97484052
P 163
From 1368 observations 2022 May 10-2025 Feb. 25, mean residual 0".4.

・ 星図

・ 光度変化

        H = 13.0  G = 0.15

---------------------------------------------------------------------

軌道要素はM.P.E.C. 2025-D254に掲載されたものです。
星図はステラナビゲータ Ver.11 (アストロアーツ) で作成したものです。
光度グラフはComet for Windowsで作成したものです。

---------------------------------------------------------------------

Copyright(C) Seiichi Yoshida (comet@aerith.net). All rights reserved.